{"data":{"norad_id":65424,"epoch":"2026-09-20T16:41:39.274080Z","epoch_age_seconds":98017,"freshness":"FRESH","line1":"1 65424U 25192W   26263.69559345  .00013000  00000+0  42945-3 0  9995","line2":"2 65424  53.1567  44.9228 0001364  78.2419 281.8736 15.31738173 59260","mean_motion":15.31738173,"eccentricity":0.0001364,"inclination_deg":53.1567,"raan_deg":44.9228,"arg_perigee_deg":78.2419,"mean_anomaly_deg":281.8736,"bstar":0.00042945,"rev_number":5926,"period_min":94.010845024491,"perigee_km":469.69203456094,"apogee_km":471.5603771635,"semimajor_km":6848.7632058622,"source":"CELESTRAK","updated_at":"2026-09-21T09:00:35.606315Z"}}